TimeCST,TemperatureF,Dew PointF,Humidity,Sea Level PressureIn,VisibilityMPH,Wind Direction,Wind SpeedMPH,Gust SpeedMPH,PrecipitationIn,Events,Conditions,WindDirDegrees,DateUTC
12:58 AM,61.3,56.3,83,29.95,10.0,West,8.1,-,N/A,,Clear,260,2013-12-02 06:58:00
1:58 AM,62.6,56.7,81,29.92,10.0,SW,9.2,-,N/A,,Clear,220,2013-12-02 07:58:00
2:58 AM,61.9,56.1,81,29.90,10.0,SSW,3.5,-,N/A,,Mostly Cloudy,210,2013-12-02 08:58:00
3:58 AM,61.2,55.9,83,29.89,10.0,SW,5.8,-,N/A,,Mostly Cloudy,220,2013-12-02 09:58:00
4:58 AM,61.7,56.3,82,29.87,10.0,SW,5.8,-,N/A,,Mostly Cloudy,220,2013-12-02 10:58:00
5:28 AM,62.6,57.2,82,29.87,9.0,East,3.5,-,N/A,,Mostly Cloudy,100,2013-12-02 11:28:00
5:38 AM,62.6,55.4,77,29.87,9.0,SSW,4.6,-,N/A,,Mostly Cloudy,200,2013-12-02 11:38:00
5:58 AM,61.9,56.1,81,29.87,10.0,WSW,2.3,-,N/A,,Scattered Clouds,250,2013-12-02 11:58:00
6:58 AM,57.2,53.8,88,29.88,7.0,South,3.5,-,N/A,,Mostly Cloudy,180,2013-12-02 12:58:00
7:58 AM,58.1,55.6,91,29.88,7.0,SSW,4.6,-,N/A,,Scattered Clouds,200,2013-12-02 13:58:00
8:58 AM,59.9,56.3,88,29.88,9.0,SSW,2.3,-,N/A,,Clear,200,2013-12-02 14:58:00
9:58 AM,66.4,58.1,75,29.88,10.0,SW,4.6,-,N/A,,Clear,220,2013-12-02 15:58:00
10:58 AM,71.4,56.3,59,29.87,10.0,SW,5.8,-,N/A,,Clear,220,2013-12-02 16:58:00
11:58 AM,75.2,56.1,51,29.83,10.0,SW,6.9,-,N/A,,Clear,230,2013-12-02 17:58:00
12:58 PM,76.6,55.6,48,29.78,10.0,SW,12.7,-,N/A,,Clear,230,2013-12-02 18:58:00
1:58 PM,78.1,53.1,42,29.73,10.0,SW,12.7,-,N/A,,Clear,220,2013-12-02 19:58:00
2:58 PM,78.8,53.6,42,29.71,10.0,SSW,12.7,-,N/A,,Clear,210,2013-12-02 20:58:00
3:58 PM,78.6,52.0,39,29.70,10.0,SSW,8.1,-,N/A,,Clear,210,2013-12-02 21:58:00
4:58 PM,76.5,52.2,43,29.70,10.0,SSW,9.2,-,N/A,,Clear,210,2013-12-02 22:58:00
5:58 PM,71.2,52.2,51,29.70,10.0,South,8.1,-,N/A,,Clear,190,2013-12-02 23:58:00
6:58 PM,68.2,53.8,60,29.72,10.0,SSW,8.1,-,N/A,,Clear,200,2013-12-03 00:58:00
7:58 PM,66.6,53.4,63,29.73,10.0,SW,6.9,-,N/A,,Clear,220,2013-12-03 01:58:00
8:58 PM,65.7,53.4,65,29.73,10.0,SSW,6.9,-,N/A,,Clear,210,2013-12-03 02:58:00
9:58 PM,62.2,53.1,72,29.73,10.0,SSW,5.8,-,N/A,,Clear,210,2013-12-03 03:58:00
10:58 PM,61.5,53.2,74,29.73,10.0,WSW,6.9,-,N/A,,Clear,250,2013-12-03 04:58:00
11:58 PM,61.0,53.1,75,29.72,10.0,WSW,4.6,-,N/A,,Clear,240,2013-12-03 05:58:00